Weather reports worldwide

Advertisment
Lewiston ID, United States of America (72783): temperature & dewpoint: 04.07.2020 01:00:00 - 10.07.2020 01:00:00 (PDT)Lewiston ID, United States of America (72783): wind speed: 04.07.2020 01:00:00 - 10.07.2020 01:00:00 (PDT)Lewiston ID, United States of America (72783): wind direction: 04.07.2020 01:00:00 - 10.07.2020 01:00:00 (PDT)Lewiston ID, United States of America (72783): reduced air pressure: 04.07.2020 01:00:00 - 10.07.2020 01:00:00 (PDT)Lewiston ID, United States of America (72783): visibility: 04.07.2020 01:00:00 - 10.07.2020 01:00:00 (PDT)Lewiston ID, United States of America (72783): precipitation: 04.07.2020 01:00:00 - 10.07.2020 01:00:00 (PDT)
Date & Time tt [°C] td [°C] ff [km/h] ff [kn] dd ppp [hPa] vv [km] rr [mm]
10.07.2020 01:00:00 17,2 13,9 11 6 ESE 1015,2 16 2,0
10.07.2020 00:00:00 17,8 13,9 15 8 S 1015,9 11 1,3
09.07.2020 23:00:00 20,6 12,2 15 8 SSW 1013,9 16 0,0
09.07.2020 22:00:00 21,7 10,0 13 7 S 1013,0 16 0,0
09.07.2020 21:00:00 24,4 6,7 18 10 W 1012,2 16 0,0
09.07.2020 20:00:00 25,6 7,8 8 4 - 1011,6 16 0,0
09.07.2020 19:00:00 27,2 4,4 16 9 W 1010,7 16 -
09.07.2020 18:00:00 29,4 8,3 11 6 NE 1010,3 16 -
09.07.2020 17:00:00 30,0 9,4 11 6 - 1010,4 16 0,0
09.07.2020 16:00:00 29,4 9,4 9 5 NE 1010,9 16 -
09.07.2020 15:00:00 28,9 8,9 9 5 NE 1011,0 16 -
09.07.2020 14:00:00 28,9 9,4 9 5 - 1011,6 16 -
09.07.2020 13:00:00 27,2 8,9 11 6 N 1012,2 16 -
09.07.2020 12:00:00 25,6 10,0 11 6 NE 1012,7 16 -
09.07.2020 11:00:00 23,3 10,0 0 0 N 1013,3 16 0,0
09.07.2020 10:00:00 21,1 10,0 5 3 N 1013,5 16 -
09.07.2020 09:00:00 18,9 10,0 8 4 NNE 1013,7 16 -
09.07.2020 08:00:00 16,7 10,0 8 4 NNE 1014,0 16 -
09.07.2020 07:00:00 15,0 8,9 9 5 NE 1013,9 16 -
09.07.2020 06:00:00 13,9 8,9 8 4 ENE 1013,7 16 -
09.07.2020 05:00:00 12,8 8,3 8 4 SE 1013,7 16 0,0
09.07.2020 04:00:00 12,8 7,8 5 3 SSE 1013,7 16 -
09.07.2020 03:00:00 13,9 8,3 5 3 SSE 1013,5 16 -
09.07.2020 02:00:00 14,4 8,3 11 6 SSE 1013,4 16 -
09.07.2020 01:00:00 15,6 8,3 8 4 SSE 1013,4 16 -
09.07.2020 00:00:00 17,8 8,3 0 0 N 1013,3 16 -
08.07.2020 23:00:00 17,2 8,3 5 3 SE 1013,5 16 0,0
08.07.2020 22:00:00 20,0 8,3 8 4 S 1013,4 16 -
08.07.2020 21:00:00 22,2 8,3 8 4 ENE 1013,2 16 -
08.07.2020 20:00:00 23,9 7,8 13 7 NE 1013,3 16 -
08.07.2020 19:00:00 25,0 8,3 11 6 - 1013,1 16 -
08.07.2020 18:00:00 26,1 7,8 13 7 N 1013,3 16 -
08.07.2020 17:00:00 26,1 7,8 9 5 N 1013,9 16 0,0
08.07.2020 16:00:00 26,1 7,2 0 0 N 1014,5 16 -
08.07.2020 15:00:00 25,6 7,2 16 9 NNW 1014,8 16 -
08.07.2020 14:00:00 25,0 7,2 9 5 NNW 1015,4 16 -
08.07.2020 13:00:00 23,3 6,7 11 6 W 1015,9 16 -
08.07.2020 12:00:00 22,8 7,2 9 5 N 1016,4 16 -
08.07.2020 11:00:00 21,1 7,2 5 3 - 1016,7 16 0,0
08.07.2020 10:00:00 21,7 8,3 9 5 - 1016,8 16 -
08.07.2020 09:00:00 19,4 8,3 11 6 NNE 1017,2 16 -
08.07.2020 08:00:00 18,3 8,3 9 5 - 1017,2 16 -
08.07.2020 07:00:00 16,1 7,2 5 3 - 1017,0 16 -
08.07.2020 06:00:00 15,0 7,2 0 0 N 1016,7 16 -
08.07.2020 05:00:00 15,0 7,2 13 7 S 1016,2 16 0,0
08.07.2020 04:00:00 13,3 6,7 5 3 SE 1015,8 16 -
08.07.2020 03:00:00 15,6 7,2 11 6 SW 1015,3 16 -
08.07.2020 02:00:00 16,7 6,7 0 0 N 1015,3 16 -
08.07.2020 01:00:00 17,8 7,2 9 5 - 1015,4 16 -
08.07.2020 00:00:00 19,4 6,1 11 6 WNW 1015,0 16 -
07.07.2020 23:00:00 20,6 7,8 16 9 WNW 1014,7 16 0,0
07.07.2020 22:00:00 21,7 6,1 24 13 W 1013,9 16 -
07.07.2020 21:00:00 21,1 5,6 13 7 W 1013,6 16 -
07.07.2020 20:00:00 23,9 5,0 26 14 W 1012,8 16 -
07.07.2020 19:00:00 25,0 5,6 22 12 WNW 1012,4 16 -
07.07.2020 18:00:00 25,0 6,7 8 4 - 1012,5 16 -
07.07.2020 17:00:00 24,4 7,2 11 6 S 1012,7 16 0,0
07.07.2020 16:00:00 25,0 6,7 0 0 N 1013,1 16 -
07.07.2020 15:00:00 24,4 7,2 11 6 NW 1013,2 16 -
07.07.2020 14:00:00 22,8 7,2 0 0 N 1013,4 16 -
07.07.2020 13:00:00 22,2 8,3 18 10 NE 1013,6 16 -
07.07.2020 12:00:00 21,7 9,4 9 5 WNW 1013,4 16 -
07.07.2020 11:00:00 20,6 10,0 13 7 WNW 1013,5 16 0,0
07.07.2020 10:00:00 20,0 10,6 11 6 N 1013,3 16 -
07.07.2020 09:00:00 17,8 10,0 11 6 NE 1013,0 16 -
07.07.2020 08:00:00 17,2 10,6 8 4 ENE 1013,0 16 -
07.07.2020 07:00:00 16,1 9,4 5 3 W 1012,3 16 -
07.07.2020 06:00:00 14,4 10,6 5 3 SE 1012,0 16 -
07.07.2020 05:00:00 16,1 11,1 16 9 NW 1011,3 16 -
07.07.2020 04:00:00 17,2 10,0 8 4 SE 1010,4 16 -
07.07.2020 03:00:00 18,9 9,4 9 5 NW 1009,9 16 0,0
07.07.2020 02:00:00 21,1 7,2 13 7 WNW 1011,2 16 0,0
07.07.2020 01:00:00 22,2 5,6 8 4 WNW 1007,7 16 -
07.07.2020 00:00:00 21,1 9,4 8 4 WSW 1007,3 16 -
06.07.2020 23:00:00 21,7 10,6 0 0 N 1007,1 16 0,0
06.07.2020 22:00:00 22,2 11,1 9 5 S 1007,6 16 -
06.07.2020 21:00:00 25,6 9,4 8 4 NE 1007,4 16 -
06.07.2020 20:00:00 27,2 8,3 8 4 NNW 1007,5 16 -
06.07.2020 19:00:00 28,9 8,3 16 9 NNW 1007,7 16 -
06.07.2020 18:00:00 29,4 7,8 11 6 NW 1008,0 16 -
06.07.2020 17:00:00 30,0 8,3 15 8 WNW 1008,7 16 0,0
06.07.2020 16:00:00 30,0 7,8 11 6 NW 1009,5 16 -
06.07.2020 15:00:00 30,0 8,3 13 7 NW 1010,2 16 -
06.07.2020 14:00:00 28,9 8,9 11 6 NW 1011,1 16 -
06.07.2020 13:00:00 27,2 8,9 5 3 - 1012,0 16 -
06.07.2020 12:00:00 26,1 10,0 9 5 - 1013,1 16 -
06.07.2020 11:00:00 23,3 8,9 0 0 N 1013,8 16 0,0
06.07.2020 10:00:00 21,1 9,4 5 3 - 1014,4 16 -
06.07.2020 09:00:00 19,4 10,0 5 3 NNE 1014,9 16 -
06.07.2020 08:00:00 17,8 10,0 8 4 NE 1015,0 16 -
06.07.2020 07:00:00 15,6 9,4 0 0 N 1015,1 16 -
06.07.2020 06:00:00 13,3 8,3 5 3 SSE 1015,0 16 -
06.07.2020 05:00:00 12,8 8,3 0 0 N 1014,7 16 0,0
06.07.2020 04:00:00 14,4 7,8 5 3 SSE 1014,2 16 -
06.07.2020 03:00:00 16,1 8,3 0 0 N 1014,1 16 -
06.07.2020 02:00:00 16,1 8,3 0 0 N 1014,1 16 -
06.07.2020 01:00:00 17,2 8,3 8 4 S 1014,1 16 -
06.07.2020 00:00:00 18,3 8,3 5 3 SSE 1014,1 16 -
05.07.2020 23:00:00 19,4 8,3 9 5 S 1014,3 16 0,0
05.07.2020 22:00:00 21,1 8,9 9 5 S 1014,2 16 -
05.07.2020 21:00:00 24,4 6,7 0 0 N 1013,7 16 -
05.07.2020 20:00:00 26,1 6,7 11 6 ENE 1013,8 16 -
05.07.2020 19:00:00 27,8 6,7 13 7 NE 1013,9 16 -
05.07.2020 18:00:00 28,3 6,7 16 9 N 1014,1 16 -
05.07.2020 17:00:00 28,3 5,6 15 8 N 1014,7 16 0,0
05.07.2020 16:00:00 28,3 6,1 5 3 - 1015,2 16 -
05.07.2020 15:00:00 28,3 7,2 11 6 ENE 1015,6 16 -
05.07.2020 14:00:00 27,2 7,2 5 3 - 1016,3 16 -
05.07.2020 13:00:00 26,1 7,2 5 3 - 1017,1 16 -
05.07.2020 12:00:00 24,4 8,9 5 3 - 1017,8 16 -
05.07.2020 11:00:00 22,8 8,3 8 4 N 1018,4 16 0,0
05.07.2020 10:00:00 20,6 8,3 5 3 - 1018,8 16 -
05.07.2020 09:00:00 18,3 8,3 0 0 N 1019,4 16 -
05.07.2020 08:00:00 15,6 8,3 0 0 N 1019,5 16 -
05.07.2020 07:00:00 14,4 7,8 8 4 ENE 1019,6 16 -
05.07.2020 06:00:00 12,8 7,2 0 0 N 1019,3 16 -
05.07.2020 05:00:00 11,7 6,7 5 3 ESE 1019,0 16 0,0
05.07.2020 04:00:00 12,8 5,6 0 0 N 1018,5 16 -
05.07.2020 03:00:00 15,0 6,7 0 0 N 1018,2 16 -
05.07.2020 02:00:00 15,0 5,6 0 0 N 1018,1 16 -
05.07.2020 01:00:00 16,1 5,6 5 3 SSE 1018,0 16 -
05.07.2020 00:00:00 17,8 5,0 0 0 N 1017,6 16 -
04.07.2020 23:00:00 17,2 5,6 0 0 N 1017,9 16 0,0
04.07.2020 22:00:00 21,7 2,8 5 3 WNW 1017,3 16 -
04.07.2020 21:00:00 22,8 2,8 5 3 NW 1016,7 16 -
04.07.2020 20:00:00 25,6 1,7 15 8 WNW 1016,2 16 -
04.07.2020 19:00:00 27,2 2,2 18 10 WNW 1015,8 16 -
04.07.2020 18:00:00 26,7 5,6 11 6 NNE 1015,9 16 -
04.07.2020 17:00:00 28,3 3,9 8 4 - 1016,0 16 0,0
04.07.2020 16:00:00 27,8 4,4 11 6 NNW 1016,2 16 -
04.07.2020 15:00:00 26,7 5,6 0 0 N 1016,4 16 -
04.07.2020 14:00:00 26,1 7,8 - - - 1017,0 16 -
04.07.2020 13:00:00 25,0 7,8 8 4 - 1017,4 16 -
04.07.2020 12:00:00 23,9 8,3 11 6 - 1018,0 16 -
04.07.2020 11:00:00 21,7 7,2 8 4 SE 1018,5 16 0,0
04.07.2020 10:00:00 20,6 9,4 5 3 - 1018,5 16 -
04.07.2020 09:00:00 17,8 7,8 0 0 N 1018,6 16 -
04.07.2020 08:00:00 15,6 8,3 9 5 E 1018,3 16 -
04.07.2020 07:00:00 13,9 8,3 5 3 NNW 1018,2 16 -
04.07.2020 06:00:00 12,2 6,7 8 4 SE 1017,4 16 -
04.07.2020 05:00:00 12,8 6,7 0 0 N 1016,8 16 0,0
04.07.2020 04:00:00 12,8 6,1 9 5 SE 1016,0 16 -
04.07.2020 03:00:00 15,0 5,6 0 0 N 1015,5 16 -
04.07.2020 02:00:00 15,6 5,6 5 3 S 1015,2 16 -
04.07.2020 01:00:00 15,6 6,1 11 6 SSE 1015,4 16 -

tt = temperature
td = dewpoint
ff = wind speed
dd = wind direction
ppp = reduced air pressure
vv = visibility
rr = precipitation

Next stations